Regional Weather Roundup
Issued by NWS State College, PA

Home | Current Version | Previous Version | Text Only | Print | Product List | Glossary Off
Versions: 1 2 3 4 5 6 7 8 9 10 11 12 13 14 15 16 17 18 19 20 21 22 23 24 25 26 27 28 29 30 31 32 33 34 35 36 37 38 39 40 41 42 43 44 45 46 47 48 49 50

135
ASUS41 KCTP 230203
RWRCTP

REGIONAL WEATHER ROUNDUP
NATIONAL WEATHER SERVICE STATE COLLEGE PA
900 PM EST THU FEB 22 2018

Note: "fair" indicates few or no clouds below 12,000 feet with no
significant weather and/or obstructions to visibility.

* = STATION THAT DOES NOT REPORT PRECIPITATION /E.G. RAIN...SNOW...ETC/
    THUNDER OR FOG.

PAZ002>004-007>009-013>016-020>023-029>032-230300-
WESTERN PENNSYLVANIA

CITY           SKY/WX    TMP DP  RH WIND       PRES   REMARKS
ERIE           CLOUDY    35  32  88 NE10      30.54R
MEADVILLE      CLOUDY    39  37  92 E7        30.48R
FRANKLIN*      CLOUDY    39  36  89 SE9       30.49R
NEW CASTLE     CLOUDY    42  38  85 E6        30.48R
BEAVER COUNTY  CLOUDY    39  36  87 E8        30.45S
BUTLER*        CLOUDY    40  37  89 E10       30.47R
PITTSBURGH INT CLOUDY    41  39  93 E5        30.46R
PITTSBURGH     CLOUDY    39  37  92 E8        30.45S
INDIANA*       CLOUDY    39  37  93 SE10      30.53R
LATROBE        CLOUDY    39  37  93 SE9       30.48F
WASHINGTON CO* CLOUDY    40  40 100 E5        30.47S FOG
$$

PAZ004>006-010>012-017>019-024>028-033>037-041-042-045-046-049>053-230300-
CENTRAL PENNSYLVANIA

CITY           SKY/WX    TMP DP  RH WIND       PRES   REMARKS
BRADFORD       CLOUDY    35  34  96 SE8       30.49F
DUBOIS         CLOUDY    36  33  89 E9        30.48S
CLEARFIELD     CLOUDY    37  36  96 E8        30.53S FOG
JOHNSTOWN      CLOUDY    35  33  92 E7        30.47F
ALTOONA        CLOUDY    37  36  96 E3        30.54S FOG
STATE COLLEGE  CLOUDY    37  36  93 E3        30.55S FOG
WILLIAMSPORT   CLOUDY    38  37  97 CALM      30.61R
SELINSGROVE    CLOUDY    39  36  89 E5        30.61S
FT INDIANTOWN  CLOUDY    38  38 100 E6        30.61R FOG
CAPITAL CITY   CLOUDY    41  38  89 NE6       30.62R
HARRISBURG     CLOUDY    40  36  86 NE7       30.61R
YORK           CLOUDY    40  38  93 E5        30.60R
$$

PAZ038>040-043-044-047-048-054-055-060>062-067>071-230300-
EASTERN PENNSYLVANIA

CITY           SKY/WX    TMP DP  RH WIND       PRES   REMARKS
SCRANTON       CLOUDY    37  35  92 NE5       30.60R
MOUNT POCONO   FOG       30  30 100 VRB5      30.55F VSB 1
ALLENTOWN      CLOUDY    38  33  82 NE10      30.63R
QUAKERTOWN*    CLOUDY    37  36  93 NE5       30.63R
READING        MOCLDY    38  38 100 NE7       30.61R
LANCASTER      CLOUDY    40  37  89 NE6       30.60S
COATESVILLE    CLOUDY    37  36  93 NE6G13    30.60R
POTTSTOWN      CLOUDY    37  36  96 NE7       30.64R
BLUE BELL      CLOUDY    37  36  93 E7        30.63R
DOYLESTOWN     CLOUDY    37  36  96 NE7       30.62R
WILLOW GROVE   NOT AVBL
NORTH PHILA    CLOUDY    41  37  86 E8        30.64R
PHILADELPHIA   NOT AVBL
$$




USA.gov is the U.S. government's official web portal to all federal, state and local government web resources and services.